Annapolis Naval Academy, MD

6:08 AM EDT on June 25, 2017 (GMT -0400)
Annapolis Naval Academy

Weather History for KNAK - January, 2013

Change the Weather History Date:

Wednesday, January 23, 2013

  Actual Average (KBWI) Record (KBWI)
Temperature  
Mean Temperature 20 °F -  
Max Temperature 26 °F 43 °F 73 °F (1967)
Min Temperature 15 °F 25 °F 0 °F (1936)
Degree Days  
Heating Degree Days 44    
Moisture  
Dew Point 3 °F    
Average Humidity 45    
Maximum Humidity 59    
Minimum Humidity 32    
Precipitation  
Precipitation 0.00 in - - ()
Sea Level Pressure  
Sea Level Pressure 30.28 in    
Wind  
Wind Speed 8 mph (WNW)    
Max Wind Speed 14 mph    
Max Gust Speed 26 mph    
Visibility 10 miles    
Events      
Averages and records for this station are not official NWS values.
T = Trace of Precipitation, MM = Missing Value Source: NWS Daily Summary

Daily Weather History Graph

Daily Weather History Graph

Search for Another Location

Airport or City:

Trip Planner

Search our weather history database for the weather conditions in past years. The results will help you decide how hot, cold, wet, or windy it might be!

Date:

Astronomy

Jan. 23, 2013 Rise Set
Actual Time 7:19 AM EST 5:17 PM EST
Civil Twilight 6:50 AM EST 5:45 PM EST
Nautical Twilight 6:17 AM EST 6:18 PM EST
Astronomical Twilight 5:46 AM EST 6:49 PM EST
Moon 2:26 PM EST (1/23) 4:28 AM EST (1/23)
Length of Visible Light 10h 55m
Length of Day
9h 57m
Waxing Gibbous, 89% of the Moon is Illuminated
Jan 23
Waxing Gibbous
Jan 26
Full
Feb 3
Last Quarter
Feb 10
New
Feb 17
First Quarter

Hourly Weather History & Observations

Time (EST) Temp. Windchill Dew Point Humidity Pressure Visibility Wind Dir Wind Speed Gust Speed Precip Events Conditions
12:54 AM 19.0 °F 8.2 °F 6.1 °F 57% 30.31 in 10.0 mi WNW 9.2 mph - N/A   Clear
1:54 AM 18.0 °F 6.1 °F 3.0 °F 52% 30.32 in 10.0 mi WNW 10.4 mph - N/A   Clear
2:54 AM 17.1 °F 8.7 °F 1.9 °F 52% 30.33 in 10.0 mi WNW 5.8 mph - N/A   Clear
3:54 AM 17.1 °F 6.6 °F 3.0 °F 54% 30.32 in 10.0 mi WNW 8.1 mph - N/A   Clear
4:54 AM 17.1 °F 5.8 °F 5.0 °F 59% 30.32 in 10.0 mi NW 9.2 mph - N/A   Clear
5:54 AM 16.0 °F 7.4 °F 3.0 °F 57% 30.34 in 10.0 mi WNW 5.8 mph - N/A   Clear
6:54 AM 16.0 °F 6.3 °F 3.9 °F 59% 30.34 in 10.0 mi WNW 6.9 mph - N/A   Clear
7:54 AM 15.1 °F 5.2 °F 1.0 °F 54% 30.35 in 10.0 mi West 6.9 mph - N/A   Clear
8:54 AM 18.0 °F 6.9 °F 1.9 °F 50% 30.36 in 10.0 mi West 9.2 mph - N/A   Clear
9:54 AM 19.9 °F 6.7 °F 3.9 °F 50% 30.36 in 10.0 mi NW 13.8 mph 21.9 mph N/A   Clear
10:54 AM 21.0 °F 8.1 °F -0.0 °F 40% 30.35 in 10.0 mi West 13.8 mph 26.5 mph N/A   Clear
11:54 AM 21.9 °F 11.0 °F 1.0 °F 40% 30.31 in 10.0 mi NW 10.4 mph 20.7 mph N/A   Clear
12:54 PM 24.1 °F 13.1 °F 1.9 °F 38% 30.27 in 10.0 mi WNW 11.5 mph - N/A   Clear
1:54 PM 25.0 °F 13.6 °F 1.0 °F 36% 30.25 in 10.0 mi West 12.7 mph 18.4 mph N/A   Mostly Cloudy
2:54 PM 25.0 °F 15.5 °F 1.0 °F 36% 30.24 in 10.0 mi WNW 9.2 mph - N/A   Overcast
3:54 PM 26.1 °F 18.4 °F -0.0 °F 32% 30.23 in 10.0 mi WNW 6.9 mph - N/A   Scattered Clouds
4:54 PM 26.1 °F 19.4 °F 3.0 °F 37% 30.24 in 10.0 mi Variable 5.8 mph - N/A   Partly Cloudy
5:54 PM 25.0 °F 20.7 °F -0.9 °F 33% 30.23 in 10.0 mi West 3.5 mph - N/A   Overcast
6:54 PM 25.0 °F 20.7 °F -0.0 °F 34% 30.22 in 10.0 mi West 3.5 mph - N/A   Overcast
7:54 PM 25.0 °F - 1.9 °F 37% 30.21 in 10.0 mi Calm Calm - N/A   Overcast
8:54 PM 26.1 °F 19.4 °F 3.9 °F 39% 30.20 in 10.0 mi North 5.8 mph - N/A   Overcast
9:54 PM 26.1 °F 20.5 °F 5.0 °F 41% 30.20 in 10.0 mi North 4.6 mph - N/A   Overcast
10:54 PM 25.0 °F 19.3 °F 1.9 °F 37% 30.20 in 10.0 mi NE 4.6 mph - N/A   Overcast
11:54 PM 24.1 °F 15.2 °F 9.0 °F 53% 30.18 in 10.0 mi ENE 8.1 mph - N/A   Overcast